Regional Weather Roundup
Issued by NWS

Home | Current Version | Previous Version | Text Only | Print | Product List | Glossary On
Versions: 1 2 3 4 5 6 7 8 9 10 11 12 13 14 15 16 17 18 19 20 21 22 23 24 25 26 27 28 29 30 31 32 33 34 35 36 37 38 39 40 41 42 43 44 45 46 47 48 49 50
959
ASUS44 KLIX 011605
RWRLA
LOUISIANA WEATHER ROUNDUP
NATIONAL WEATHER SERVICE NEW ORLEANS LA
1100 AM CDT WED OCT 01 2014

NOTE: "FAIR" INDICATES FEW OR NO CLOUDS BELOW 12,000 FEET WITH NO
      SIGNIFICANT WEATHER AND/OR OBSTRUCTIONS TO VISIBILITY.
      SKY/WX - SKY CONDITION AND SIGNIFICANT WEATHER.
      TMP - AIR TEMPERATURE.    DP   - DEWPOINT TEMPERATURE.
      RH  - RELATIVE HUMIDITY.  PRES - PRESSURE.
      HX  - HEAT INDEX.         WCI  - WIND CHILL INDEX.

*  THESE STATIONS ARE NOT NWS OR FAA STATIONS AND ARE NOT UNDER
   NWS QUALITY CONTROL.

LAZ040-048-061>063-065-066-069-011700-
SOUTHEAST LOUISIANA

CITY           SKY/WX    TMP DP  RH WIND       PRES   REMARKS
N.O. AUDUBON     N/A     82  74  78 MISG        N/A
N.O. INTL ARPT LGT RAIN  81  72  74 SE10      29.96R
N.O. LAKEFRONT CLOUDY    82  72  71 SE10      29.97R
N.O. DOWNTOWN* PTSUNNY   81  70  69 SE7       29.97R
SLIDELL        PTSUNNY   82  71  69 SE8       29.96R
BATON ROUGE    CLOUDY    78  74  87 E6        29.95R
BOOTHVILLE     LGT RAIN  80  75  84 SE5       29.95F
BELLE CHASSE   TSTM      77  72  84 S16G23    29.97R FOG
BOGALUSA*        N/A     83  70  64 S5        29.98S
GALLIANO*      NOT AVBL
NEW ROADS*     PTSUNNY   78  74  86 SE8       29.94S
GONZALES*      LGT RAIN  77  77 100 E3        29.94R
HAMMOND*       CLOUDY    81  70  69 SE5       29.97S
HOUMA*         PTSUNNY  N/A N/A N/A E3        29.94S
PORT FOURCHON* MOSUNNY   81  73  78 SE7       29.97S

$$

LAZ041-044-053-054-011700-
SOUTHWEST LOUISIANA

CITY           SKY/WX    TMP DP  RH WIND       PRES   REMARKS
LAKE CHARLES   CLOUDY    82  77  84 SE13      29.89R
LAFAYETTE      LGT RAIN  76  76 100 VRB3      29.93F
PATTERSON      CLOUDY    75  73  94 SE5       29.96S
SALT POINT       N/A     80  77  90 VRB3      29.93R
NEW IBERIA     HVY RAIN  77  75  93 SE8       29.93F FOG
CHENAULT AIRPK CLOUDY    81  75  83 E8        29.90R

$$

LAZ027-028-011700-
CENTRAL LOUISIANA

CITY           SKY/WX    TMP DP  RH WIND       PRES   REMARKS
FORT POLK      CLOUDY    78  74  87 SE8       29.90S
ALEXANDRIA INT LGT RAIN  79  73  82 SE10      29.91R
ALEXANDRIA     CLOUDY    79  73  82 SE10      29.93S

$$

LAZ001-002-011700-
NORTHWEST LOUISIANA

CITY           SKY/WX    TMP DP  RH WIND       PRES   REMARKS
SHREVEPORT     PTSUNNY   83  73  72 SE10      29.89R
BARKSDALE AFB  MOSUNNY   81  72  74 S7        29.89S
DTN SHREVEPORT PTSUNNY   80  71  74 S9        29.89R

$$

LAZ014-016-011700-
NORTHEAST LOUISIANA

CITY           SKY/WX    TMP DP  RH WIND       PRES   REMARKS
MONROE         PTSUNNY   81  72  74 S9        29.93R
TALLULAH       SUNNY     83  68  60 S10       29.95R

$$




USA.gov is the U.S. government's official web portal to all federal, state and local government web resources and services.